Location: Berkeley
(37.8716°N, 122.2727°W)
Time: 11:29:27
(UTC-07:00)

Envisat - Pass Details

Date: 22 April 2024
Orbit: 762 x 764 km, 98.3° (Epoch: 29 May)

Event Time Altitude Azimuth Distance (km) Brightness Sun altitude
Rises 04:04:43 0° 18° (NNE) 3,234 7.2 -24.8°
Reaches altitude 10° 04:07:06 10° 24° (NNE) 2,304 6.3 -24.4°
Maximum altitude 04:12:02 51° 100° (E) 959 3.7 -23.7°
Enters shadow 04:14:30 27° 162° (SSE) 1,421 4.2 -23.3°
